Regional Weather Roundup
Issued by NWS Sterling, VA

Home | Current Version | Previous Version | Text Only | Print | Product List | Glossary On
Versions: 1 2 3 4 5 6 7 8 9 10 11 12 13 14 15 16 17 18 19 20 21 22 23 24 25 26 27 28 29 30 31 32 33 34 35 36 37 38 39 40 41 42 43 44 45 46 47 48 49 50
000
ASUS41 KLWX 191110
RWRLWX

REGIONAL WEATHER ROUNDUP
NATIONAL WEATHER SERVICE BALTIMORE MD/WASHINGTON DC
700 AM EDT FRI SEP 19 2014

Note: "FAIR" indicates few or no clouds below 12,000 feet
with no significant weather and/or obstructions to visibility.
 TC=TEMPERATURE CELSIUS

 * =Non NWS site. Station does not report precipitation (e.g. rain,
    snow, etc.), thunder, or fog.

DCZ001-MDZ009-015-VAZ040>042-051-053>054-191200-
WASHINGTON METRO

CITY           SKY/WX    TMP DP  RH WIND       PRES   REMARKS
WASHINGTON NAT MOCLDY    61  51  70 NE8       30.21R
DULLES         MOCLDY    54  49  83 N6        30.22R
ANDREWS AFB    MOCLDY    54  53  95 NE5       30.20R
QUANTICO       MOCLDY    63  58  83 NE9       30.20S
COLLEGE PARK*  MOCLDY    55  54  94 CALM      30.22R
LEESBURG*      MOCLDY    54  52  94 N7        30.24R
GAITHERSBURG*  CLEAR     54  48  82 NE3       30.26R

$$

MDZ006>007-011-014-191200-
BALTIMORE METRO

CITY           SKY/WX    TMP DP  RH WIND       PRES   REMARKS
BWI AIRPORT    PTCLDY    57  50  77 N7        30.22R
MD SCIENCE CTR   N/A     59  49  69 MISG      30.23R
MARTIN STATE   PTCLDY    55  54  94 N5        30.23R
ANNAPOLIS      PTCLDY    61  53  75 NE5       30.21R

$$

MDZ012-015-019>023-191200-
MARYLAND EASTERN SHORE

CITY           SKY/WX    TMP DP  RH WIND       PRES   REMARKS
OCEAN CITY     CLEAR     58  55  90 N3        30.18R
SALISBURY      CLEAR     57  53  86 CALM      30.18R
BAY BRIDGE AP*   N/A     59  52  77 NE9       30.21R
CAMBRIDGE*     CLEAR     57  54  88 CALM      30.19R
EASTON*        CLEAR     57  57 100 NE7       30.23R

$$

MDZ017>025-191200-
SOUTHERN MARYLAND

CITY           SKY/WX    TMP DP  RH WIND       PRES   REMARKS
PATUXENT RIVER MOCLDY    59  58  96 W3        30.18R
ST INIGOES     PTCLDY    59  55  87 CALM      30.17R
LEONARDTOWN*   PTCLDY    55  54  94 CALM      30.20R

$$

MDZ003>005-191200-
NORTH CENTRAL MARYLAND

CITY           SKY/WX    TMP DP  RH WIND       PRES   REMARKS
FREDERICK*     CLEAR     55  52  88 NE6       30.26R
HAGERSTOWN APT PTCLDY    52  49  89 N8        30.23R
WESTMINSTER*   CLEAR     50  46  87 NE3       30.23R

$$

MDZ501>502-191200-
WESTERN MARYLAND

CITY           SKY/WX    TMP DP  RH WIND       PRES   REMARKS
OAKLAND*       CLEAR     45  45 100 E8        30.23R
CUMBERLAND*    CLEAR     46  45  93 CALM      30.28R

$$

VAZ025>031-191200-
SHENANDOAH VALLEY

CITY           SKY/WX    TMP DP  RH WIND       PRES   REMARKS
WINCHESTER*    MOCLDY    54  48  82 CALM      30.23R
STAUNTON*      MOCLDY    59  50  71 CALM      30.22R

$$

WVZ021-048>050-054>055-191200-
EASTERN WEST VIRGINIA PANHANDLE

CITY           SKY/WX    TMP DP  RH WIND       PRES   REMARKS
MARTINSBURG    MOCLDY    54  48  80 N6        30.23R
PETERSBURG*    CLOUDY    53  50  90 CALM      30.24R

$$

VAZ036>039-050-191200-
CENTRAL FOOTHILLS

CITY           SKY/WX    TMP DP  RH WIND       PRES   REMARKS
CHARLOTTESVILL MOCLDY    60  56  86 NE5       30.19R
ORANGE*        MOCLDY    57  55  94 N3        30.21R

$$

VAZ055>057-191200-
NORTH AND CENTRAL PIEDMONT

CITY           SKY/WX    TMP DP  RH WIND       PRES   REMARKS
FREDERICKSBRG* FOG       62  62 100 CALM      30.19R VSB 1/2
STAFFORD*      CLOUDY    57  57 100 CALM      30.23R FOG

$$

NCZ024-NYZ072-PAZ021-071-VAZ022-071-191200-
OTHER REGIONAL OBSERVATIONS

CITY           SKY/WX    TMP DP  RH WIND       PRES   REMARKS
NEW YORK CITY  CLOUDY    56  44  64 NE12G21   30.29R
PHILADELPHIA   PTCLDY    58  49  72 NE14      30.23R
PITTSBURGH     PTCLDY    50  47  89 N5        30.22R
ROANOKE        CLOUDY    65  59  81 NE3       30.18R
RICHMOND       CLOUDY    63  58  83 CALM      30.18R
RALEIGH        CLOUDY    65  58  78 E5        30.14R

$$

ANZ530>537-191200-
MARINE OBSERVATIONS

STATION/POSITION TIME  TEMP    WIND        PRES
                       AIR SEA DIR/SP/G
                 (UTC) (F)     (DEG/KT/KT) (MB)
THOMAS PT LIGHT  1100   61 74   50/ 15/ 18 1023.6R
BALT KEY BRIDGE  1100   59      20/  9/ 11 1022.8S
COVE POINT       1100   65      60/ 13/ 15 1021.8S
LEWISETTA        1100   66 73  290/  3/  3 1021.3S
SOLOMONS ISLAND  1100      76                N/A
PINEY POINT      1100           40/  6/  6   N/A

$$



USA.gov is the U.S. government's official web portal to all federal, state and local government web resources and services.